Theta_e
351 351 351 351 351 351 351 348 345 346 347 345 347 347 344 343 340 339 337 340 342 347 349 345 349 353 351 350 350 350 350 350 350 349 349 349 348 346 345 344 343 343 341 341 339 338 338 338 338 339 338 338 338 337 338 337 336 336 336 336 335 336 334 332 331 330 330 330 330 330 327 327 329 329
351 352 352 351 350 352 351 349 348 347 348 345 346 347 347 347 341 342 339 340 345 346 348 350 348 351 350 350 349 350 349 351 349 348 348 347 347 345 344 343 342 342 342 342 339 338 338 338 338 336 337 337 337 337 337 337 337 336 335 334 334 333 333 331 330 330 328 327 326 325 325 326 326 326
352 352 350 351 350 351 349 350 348 348 347 345 345 347 348 347 347 344 344 340 345 350 346 349 352 350 350 349 349 349 350 350 347 346 347 347 346 345 344 342 340 340 339 340 340 338 337 337 336 335 336 335 336 337 335 334 333 333 333 332 333 332 331 329 329 329 329 328 327 327 326 327 328 326
352 352 351 352 352 352 350 350 350 351 349 347 345 346 348 348 347 349 346 341 342 349 350 349 350 351 349 349 347 348 348 347 346 346 345 346 345 343 343 342 339 338 338 337 338 339 337 336 335 334 333 333 332 331 332 331 331 331 332 331 332 330 329 328 327 325 324 325 324 322 323 323 324 324
350 351 350 350 351 351 350 351 351 350 350 349 347 348 348 346 347 347 345 342 343 347 352 351 348 351 350 346 346 344 344 343 344 344 345 345 342 341 341 341 339 338 336 335 335 335 336 335 334 333 333 332 332 331 330 330 330 330 330 330 329 327 326 326 325 325 325 324 323 325 325 325 324 324
350 350 350 349 349 351 350 350 349 351 351 349 347 348 345 345 346 348 345 344 344 344 346 348 350 348 349 343 346 343 341 340 342 340 338 338 338 338 339 339 338 337 335 334 333 333 334 335 335 332 332 331 331 331 331 329 328 328 328 327 326 326 325 325 325 324 324 324 324 325 324 323 324 325
351 349 350 350 350 350 350 350 351 352 351 350 349 349 348 347 347 347 348 347 344 344 345 348 345 345 346 344 342 343 342 341 340 337 335 335 335 336 336 336 337 337 335 333 332 331 331 332 333 333 331 330 331 331 330 328 326 326 325 324 325 325 324 324 324 324 323 323 324 324 324 324 323 323
349 349 349 349 350 351 350 350 351 353 352 352 352 350 351 351 350 350 348 348 346 346 344 344 345 345 343 343 343 343 341 339 337 334 333 333 333 333 334 334 335 334 334 333 331 330 329 329 329 329 329 328 328 325 323 322 322 322 323 323 323 323 324 323 324 322 322 322 322 323 324 323 323 323
350 349 348 349 349 350 348 350 349 351 352 351 351 351 353 353 353 352 349 348 349 348 345 343 345 344 344 342 340 340 335 334 333 332 331 331 331 331 332 332 333 333 333 332 331 330 329 327 326 324 323 322 321 321 321 321 320 320 321 321 321 322 322 322 322 323 323 323 323 323 323 323 323 323
351 350 349 349 350 350 348 348 350 351 351 351 350 351 352 353 354 353 351 349 348 349 347 345 340 341 338 336 336 337 335 331 328 328 328 329 329 329 329 330 331 331 330 329 328 327 326 325 323 322 320 320 319 319 319 319 319 319 319 319 320 320 320 320 320 320 320 320 321 322 323 324 324 323
350 350 350 350 350 349 350 349 349 350 352 351 350 352 351 353 353 353 351 349 347 347 346 343 343 339 339 338 333 335 337 333 330 327 324 324 326 327 328 327 329 328 327 328 327 326 325 323 320 322 320 319 318 318 318 318 318 318 318 317 318 319 319 318 318 318 318 318 318 318 320 321 322 322
350 350 350 350 350 350 350 350 351 351 350 352 350 351 352 352 352 351 350 347 346 346 344 342 340 339 336 335 335 335 333 330 329 328 326 323 322 324 327 327 325 324 325 324 323 325 323 321 321 320 320 319 318 318 318 318 319 318 317 317 318 318 317 317 317 317 317 316 316 315 315 317 319 320
349 349 350 350 350 353 355 357 356 355 354 351 349 351 352 351 351 351 350 348 344 343 342 341 340 336 334 332 330 329 328 327 328 329 327 326 325 324 323 322 324 324 322 321 321 320 320 319 318 318 317 316 317 317 318 318 318 318 317 317 317 317 317 317 317 317 316 316 316 315 315 315 315 317
348 348 349 351 354 356 358 359 361 361 361 359 354 351 351 351 350 350 349 345 345 344 341 340 338 335 333 331 331 330 331 333 333 327 326 323 321 321 318 316 318 322 320 318 318 319 319 317 316 317 315 316 317 316 317 316 316 317 317 317 317 317 316 316 316 316 315 315 315 315 314 314 315 315
346 347 349 349 351 355 357 359 361 362 364 365 362 360 357 354 351 349 348 347 346 344 342 342 339 337 336 335 334 334 333 332 329 327 327 325 321 318 314 312 315 320 318 318 318 317 318 318 315 316 316 316 316 317 317 318 318 317 317 316 316 316 316 316 315 315 315 315 315 315 314 314 314 314
343 345 346 347 349 349 350 352 354 358 362 365 366 364 361 359 356 353 351 349 346 344 344 342 339 338 338 338 334 333 333 331 330 329 326 322 320 318 317 319 314 318 320 317 316 315 318 317 315 315 317 318 317 317 318 318 318 317 317 317 317 317 316 316 316 316 315 315 315 315 315 314 314 314
343 345 345 346 347 348 352 353 354 354 355 359 360 359 357 357 355 343 343 352 352 347 340 340 340 338 340 339 338 336 334 334 330 329 324 323 321 322 321 321 320 316 319 315 313 311 314 315 315 313 316 317 317 317 319 319 319 318 318 318 317 317 317 316 316 316 315 315 315 314 314 314 314 312
344 344 344 344 344 347 349 350 352 353 355 355 356 359 360 359 359 359 352 351 354 351 344 341 337 340 344 341 342 342 339 334 331 328 324 323 322 321 321 324 320 320 318 313 311 310 312 314 313 312 314 316 315 317 318 319 319 319 318 318 318 318 317 317 317 316 316 315 314 313 313 314 313 313
344 344 345 345 345 346 347 348 350 351 352 355 355 354 355 354 353 354 356 355 352 350 348 345 343 343 345 346 347 345 340 337 336 333 329 326 325 326 324 320 319 316 318 317 312 307 310 314 311 311 312 314 314 316 318 319 319 319 319 318 318 317 317 317 318 317 316 316 314 313 313 313 314 314
344 345 346 347 347 347 348 347 341 345 352 352 351 350 349 348 349 349 350 343 344 351 351 349 347 346 347 342 346 342 339 337 337 334 331 329 324 319 317 316 316 314 316 317 313 312 310 315 311 310 312 312 312 315 318 320 319 319 319 318 317 317 317 317 317 316 316 316 315 313 312 312 312 313
342 343 345 346 346 347 348 346 334 334 345 348 346 346 345 345 346 347 351 340 334 334 334 334 335 335 335 334 330 329 329 335 334 330 325 322 322 319 316 316 313 312 313 315 315 315 310 313 312 311 311 311 311 313 315 318 319 319 319 317 317 317 317 317 316 316 316 315 315 314 312 311 311 312
344 344 347 348 346 346 346 339 332 331 342 344 342 343 344 344 344 344 346 349 348 332 330 330 331 333 334 333 330 328 326 326 334 328 324 326 323 320 319 318 314 315 313 315 317 313 310 311 311 309 311 312 312 312 314 316 317 319 317 316 316 316 316 316 316 315 315 315 314 314 312 311 311 316
345 346 348 348 349 349 346 331 328 328 339 346 344 344 343 343 343 344 347 346 347 349 345 342 342 340 336 339 340 339 330 335 337 332 332 328 323 321 321 321 315 311 311 315 318 312 311 309 309 308 305 305 311 312 313 314 316 317 317 316 315 316 316 315 315 314 314 314 314 313 312 310 311 316
343 345 345 346 339 331 327 322 319 319 321 340 345 343 341 341 341 346 347 347 347 348 348 348 347 345 346 346 344 343 340 336 336 333 333 327 324 324 323 321 316 314 313 315 318 313 313 310 306 310 306 302 301 309 310 311 314 316 315 314 313 315 316 316 314 312 312 313 312 312 311 310 311 316
342 343 345 346 339 318 314 313 312 311 313 322 335 341 342 343 344 345 348 347 344 348 349 348 348 347 346 346 344 342 341 336 336 335 333 331 327 326 324 321 319 319 319 317 320 314 308 308 306 308 309 309 308 306 309 310 313 314 313 312 311 313 315 314 314 315 311 311 310 309 309 310 310 314
340 340 339 339 330 317 314 312 310 310 312 315 327 332 324 325 326 335 341 344 345 345 345 345 345 346 345 345 343 341 340 338 336 336 335 332 329 329 330 326 322 319 318 318 320 315 310 307 306 305 306 305 306 308 305 307 309 311 313 311 310 312 314 314 314 315 316 317 316 312 312 309 311 311
332 333 331 331 326 314 308 306 307 309 312 320 325 316 314 316 318 325 330 334 336 338 340 341 341 342 343 343 342 341 339 338 337 336 335 334 332 331 332 331 329 326 324 318 320 316 312 308 312 306 304 305 304 306 306 303 305 310 310 310 310 311 314 314 313 313 314 315 317 312 310 310 311 312
329 327 326 324 310 305 303 304 307 310 316 321 311 310 312 314 319 325 327 328 330 332 333 334 336 337 340 341 339 339 339 339 338 337 336 335 334 331 330 331 332 328 321 319 318 315 313 310 309 310 308 305 303 301 301 304 307 308 307 309 310 310 312 313 313 314 314 316 316 315 314 313 314 314
326 320 310 307 307 310 310 312 316 319 322 316 314 313 315 324 326 326 327 328 329 329 330 332 335 337 339 341 341 339 339 339 338 336 336 336 334 333 331 330 330 325 322 321 317 315 313 310 309 309 308 307 304 304 303 301 303 305 307 308 306 308 311 313 312 313 314 314 314 314 313 314 314 316
317 314 312 313 314 318 320 325 326 326 325 321 322 322 325 326 326 326 325 326 326 327 330 331 332 335 332 328 326 328 331 333 333 333 332 331 328 327 325 323 321 322 321 320 317 315 314 312 311 310 308 308 307 304 303 302 302 303 309 306 306 312 312 311 311 313 314 313 314 314 314 315 315 316
323 323 324 321 315 315 317 322 322 321 323 323 323 322 323 323 325 325 326 325 326 327 328 329 327 322 323 325 327 326 327 327 324 326 330 329 326 325 324 321 317 317 318 317 317 316 314 312 311 310 306 307 309 306 305 305 303 303 306 307 308 303 308 310 311 311 314 314 314 315 315 314 315 317
323 323 322 322 324 324 323 322 321 321 321 322 321 321 321 321 322 324 325 326 322 320 320 321 321 320 320 321 321 321 321 320 321 323 323 321 321 323 322 318 314 314 313 314 315 317 318 314 312 312 310 308 306 307 307 306 304 303 304 308 309 310 312 308 309 310 313 314 311 311 312 312 312 315
322 322 321 321 321 320 319 319 318 319 319 320 320 320 320 320 320 320 319 318 317 317 318 318 318 319 318 318 319 319 318 318 318 321 320 320 320 320 320 318 314 312 310 310 313 314 314 315 317 314 313 312 311 309 307 304 305 305 305 307 307 308 311 310 310 310 312 312 311 311 311 312 312 313
319 318 318 319 318 318 318 318 317 317 317 318 319 319 318 319 318 318 317 316 316 317 317 317 317 317 317 316 317 317 316 316 318 319 318 317 319 317 316 314 314 314 313 311 311 312 313 313 314 315 316 316 315 312 310 306 306 307 307 307 307 306 311 311 311 312 310 309 309 309 309 310 312 313
317 317 317 317 317 317 317 317 317 317 316 317 317 318 318 317 317 317 316 316 317 317 317 316 317 317 316 316 316 316 316 315 316 317 319 319 318 317 316 314 313 312 311 311 311 312 312 312 312 311 312 311 310 313 312 315 310 310 309 309 308 307 309 313 312 311 310 310 310 308 309 310 311 314
318 316 316 316 315 316 316 316 317 316 316 316 316 316 316 316 316 316 315 316 316 316 316 315 315 316 316 315 315 315 315 315 315 315 316 317 317 318 318 317 316 315 314 313 313 313 313 312 311 309 307 307 306 306 307 310 312 312 310 310 311 310 310 312 315 312 310 310 310 309 307 308 310 313
316 316 316 315 316 315 314 315 316 316 315 316 316 316 315 315 315 315 316 317 316 315 315 315 315 315 315 315 315 315 315 315 314 315 315 316 316 316 315 315 315 315 314 314 315 315 314 312 313 311 308 306 305 304 306 309 308 312 313 311 312 313 312 313 313 310 311 312 311 310 310 310 311 314
316 316 316 316 316 315 315 315 315 315 315 316 316 316 315 315 315 316 317 316 314 315 315 315 315 315 314 314 314 313 314 314 314 314 315 315 314 313 314 313 313 313 313 314 314 314 315 314 312 311 309 306 305 305 304 306 307 308 311 314 312 313 315 312 310 310 311 312 312 312 313 311 313 316
317 316 317 317 317 316 315 315 315 315 314 315 315 315 316 315 315 315 315 315 315 314 314 314 314 314 314 314 314 314 313 313 312 313 313 314 314 313 313 313 312 311 312 311 312 313 314 313 313 312 311 309 307 308 309 307 308 312 311 310 315 315 314 312 312 313 312 310 311 314 314 316 312 309
318 318 318 317 317 316 315 315 315 314 314 315 315 315 315 315 315 315 315 314 314 314 314 313 313 313 313 313 313 313 313 313 312 311 312 313 313 313 312 312 311 311 310 310 310 311 312 313 314 314 314 315 317 317 317 315 312 313 313 311 310 315 316 314 314 313 312 312 313 310 309 310 309 312
320 319 320 319 318 316 316 315 315 314 314 314 315 315 315 315 315 314 315 315 315 314 313 313 313 313 312 312 312 312 311 311 312 312 312 312 313 313 313 312 311 311 310 309 310 310 311 314 317 316 317 316 315 315 313 310 309 309 310 312 308 309 312 314 318 316 314 314 312 310 310 308 309 310
319 319 320 319 318 317 316 315 315 314 314 314 314 315 315 315 315 315 316 316 315 315 314 313 313 313 312 313 312 312 312 311 311 312 312 312 312 313 313 312 311 311 311 309 309 311 315 316 317 317 315 314 313 311 309 310 310 310 312 312 312 307 308 310 311 313 320 314 311 309 308 307 307 308
319 319 319 320 320 318 316 315 315 314 314 314 313 315 314 314 315 316 316 314 315 314 314 313 313 313 313 313 313 313 313 312 312 312 312 312 312 312 311 310 311 311 312 312 313 312 312 315 314 313 314 314 314 314 310 311 312 312 310 310 310 311 312 308 308 307 308 310 311 313 313 311 308 305
318 318 319 320 320 319 318 316 315 314 314 314 314 314 314 314 314 315 316 314 314 314 313 313 313 313 313 313 313 313 313 313 312 312 312 312 312 312 311 311 311 311 312 312 311 311 312 314 314 313 312 311 312 312 311 311 310 311 310 311 312 311 310 311 312 308 308 307 308 309 309 310 312 312
320 320 320 320 321 320 319 318 316 315 314 314 313 313 313 313 314 314 315 314 314 313 313 313 313 312 312 312 312 311 312 312 312 312 312 312 312 312 312 311 311 311 311 312 311 310 311 312 313 313 313 312 312 312 313 312 312 311 311 309 310 311 312 311 310 309 310 311 310 308 309 309 308 309
Wind_Speed
3 3 3 4 4 4 3 3 4 4 4 4 4 5 7 6 4 3 3 6 6 6 9 6 7 7 7 5 6 7 6 9 9 5 5 6 6 9 10 9 9 9 10 9 10 10 9 9 9 9 9 9 9 10 11 10 10 10 11 12 12 13 13 13 13 13 13 14 14 14 14 13 14 14
3 3 3 3 4 3 3 4 4 4 4 4 5 5 5 5 7 5 5 5 5 4 7 8 7 8 8 7 6 6 6 9 9 6 5 6 6 10 10 9 9 8 7 7 8 8 8 8 9 8 8 8 9 9 10 10 11 10 11 11 11 12 12 12 12 13 12 12 12 12 12 12 13 14
4 4 5 4 4 4 3 3 2 3 3 5 5 4 3 5 6 6 5 4 3 5 6 8 5 8 9 8 5 5 5 9 7 6 5 5 10 11 8 10 9 8 8 8 8 9 8 8 8 9 9 10 11 10 9 9 9 10 10 10 11 11 11 11 12 12 13 13 13 13 13 14 15 14
5 5 6 6 5 4 3 4 3 3 3 3 4 5 5 5 4 4 5 6 6 4 3 6 7 10 10 8 7 6 6 7 9 6 5 7 11 7 6 9 10 10 9 9 8 8 9 9 9 9 8 8 8 8 8 9 8 9 9 10 11 11 11 11 11 11 11 11 12 11 10 11 12 12
5 6 7 7 6 4 4 4 3 3 4 3 4 3 4 5 4 6 6 6 6 1 3 5 7 9 11 8 7 10 8 8 7 6 6 7 4 4 4 6 10 10 10 9 9 8 7 9 9 9 9 9 10 9 9 8 9 9 9 10 11 11 11 11 11 11 12 11 10 12 13 13 13 13
5 6 7 8 7 5 5 5 5 4 4 4 4 4 5 5 6 6 6 7 6 5 5 6 7 9 11 8 8 10 9 8 8 7 5 4 4 4 4 4 5 10 10 10 9 8 8 7 8 9 9 9 9 9 9 9 9 9 10 11 10 10 10 11 11 11 11 11 12 12 12 11 13 14
6 6 7 8 7 4 5 6 6 5 5 5 5 6 5 6 6 5 7 5 5 6 6 7 7 8 11 9 9 9 8 9 9 8 6 5 4 3 3 4 3 6 10 11 10 10 9 8 7 7 8 9 9 10 11 11 9 10 10 9 8 9 10 10 11 11 11 12 12 12 12 12 13 13
7 8 8 7 7 6 7 7 6 5 5 5 5 6 5 6 7 6 6 8 7 4 5 7 8 8 8 6 7 7 8 9 7 5 5 5 5 5 4 4 4 6 9 9 11 11 11 11 11 11 11 11 11 12 11 10 9 9 10 10 9 8 7 7 8 10 11 12 12 12 12 12 12 12
8 8 8 9 7 6 7 7 6 6 7 6 5 6 6 6 5 4 5 6 5 5 6 6 5 6 6 4 7 9 8 6 5 4 5 6 5 6 5 4 5 9 11 11 11 10 11 11 11 11 11 11 11 11 10 10 10 10 10 10 9 9 8 8 8 9 8 8 8 8 9 10 11 11
8 7 9 9 8 7 8 8 8 6 8 6 6 7 6 6 4 5 5 5 6 6 5 6 6 7 7 4 5 9 8 9 7 5 4 4 4 6 7 6 7 5 5 6 7 9 10 12 13 12 12 12 12 12 11 11 11 11 11 11 11 10 9 8 9 9 9 8 8 9 9 7 8 10
8 9 8 8 9 9 9 9 9 9 8 6 8 8 8 7 5 5 5 5 6 6 5 6 7 8 6 7 7 6 6 4 5 9 8 7 5 4 8 9 8 5 4 5 8 8 8 11 9 11 12 12 13 12 12 12 13 12 11 11 12 11 10 9 8 7 9 10 10 11 12 13 14 13
9 9 10 10 9 10 9 10 10 9 8 6 7 7 6 6 7 6 5 6 6 5 5 8 8 7 7 5 3 5 7 7 3 6 8 10 11 10 8 9 10 6 6 6 6 8 10 10 11 13 12 13 13 13 12 13 13 14 12 11 12 12 12 10 9 9 9 10 12 12 12 12 12 13
9 8 8 8 9 9 13 15 13 11 10 8 8 9 7 8 8 7 5 6 7 5 6 7 5 6 7 6 8 9 10 13 11 10 6 5 4 7 7 4 4 6 8 7 7 7 7 8 7 6 6 8 12 11 12 11 14 14 13 12 12 11 11 10 11 11 11 11 11 12 13 13 12 12
8 9 9 8 14 16 16 17 18 17 16 15 11 10 9 9 8 7 6 8 6 7 8 9 8 8 9 10 11 11 15 8 5 9 9 8 6 6 3 2 4 7 7 8 7 6 6 7 7 6 7 7 8 7 7 7 8 12 13 13 12 12 12 11 12 11 12 12 12 12 13 12 11 11
8 8 8 8 10 13 14 14 18 19 17 17 18 17 14 12 11 8 8 8 10 9 10 8 10 11 12 13 11 11 11 11 11 9 10 9 8 9 10 8 5 7 8 8 8 7 7 7 8 6 7 7 6 6 5 11 13 14 13 13 12 12 12 12 12 11 11 11 11 11 12 11 10 10
8 9 9 8 7 8 10 10 10 13 17 17 17 19 16 14 17 16 13 10 8 11 7 6 8 8 12 12 9 9 8 10 9 8 9 11 11 10 10 9 10 9 11 8 7 7 7 6 7 7 7 7 6 6 9 13 13 13 13 12 12 11 11 11 11 11 11 10 10 10 10 10 9 8
9 8 8 7 7 7 12 11 10 10 10 13 17 17 17 16 17 16 17 14 8 8 8 9 9 12 13 10 11 13 13 9 10 9 8 8 9 11 14 11 7 8 13 9 6 7 7 8 8 7 7 7 6 7 11 13 13 12 11 11 10 10 9 10 10 10 9 9 9 9 10 9 8 7
10 10 9 9 9 9 9 9 9 9 9 10 7 6 6 8 11 13 15 15 13 11 11 11 14 15 13 13 11 12 13 12 13 12 12 11 11 12 14 9 5 7 12 14 10 5 7 8 7 7 6 6 6 6 9 12 12 12 12 10 9 9 9 8 9 9 8 8 9 8 8 7 7 6
11 11 10 10 10 9 8 8 9 9 9 7 6 8 7 4 5 6 9 11 11 9 10 12 14 14 12 13 11 4 8 13 13 13 15 18 16 8 5 6 5 7 8 7 8 8 8 8 7 6 6 7 6 5 9 12 12 12 12 11 10 10 9 9 8 8 8 7 8 8 7 6 5 5
9 9 9 9 9 9 8 9 12 12 7 6 6 6 6 6 6 8 11 14 11 12 13 13 13 12 13 11 9 12 15 13 9 8 5 6 7 8 8 7 6 8 9 9 8 5 9 8 8 7 6 6 5 6 5 11 13 12 12 12 12 10 9 9 9 9 8 8 8 8 7 6 5 4
8 8 7 7 7 7 8 9 10 11 7 1 2 7 10 9 9 11 9 12 15 16 18 19 19 19 19 14 14 16 20 14 12 8 8 10 11 10 10 7 7 9 10 9 9 6 9 9 7 7 6 6 5 5 6 6 12 12 12 13 12 11 10 9 9 9 8 8 8 7 7 6 5 5
7 8 13 11 8 8 8 9 10 10 5 8 10 12 10 9 10 10 8 6 9 17 18 19 20 20 20 17 15 15 17 19 17 14 15 16 12 13 12 13 9 6 10 12 11 9 9 10 7 8 6 6 4 5 5 5 7 12 11 12 12 11 11 11 10 9 9 9 8 8 7 7 5 4
6 7 7 11 10 9 9 11 11 10 6 8 11 12 11 11 12 10 8 11 11 9 9 12 13 14 16 14 12 12 19 23 21 18 17 9 13 15 14 10 9 6 9 12 14 12 9 13 9 10 9 6 4 6 6 8 6 7 6 7 8 11 11 11 11 11 10 9 9 8 8 7 5 3
7 6 7 7 7 11 11 10 9 8 7 8 8 9 10 11 15 7 9 11 10 11 11 12 11 13 13 12 13 13 13 16 20 18 15 15 17 16 15 14 15 15 13 13 19 13 6 9 9 5 4 9 8 7 6 6 6 6 6 6 6 11 12 11 9 12 11 10 10 9 8 9 7 4
6 6 6 6 4 8 8 6 6 7 7 6 6 7 9 10 10 6 8 10 12 12 12 12 11 11 11 11 11 12 11 13 15 16 15 15 17 16 15 15 15 13 6 14 21 12 9 12 10 7 2 4 3 6 5 6 5 6 7 7 7 7 8 7 6 6 8 11 11 10 10 10 9 6
5 5 5 5 7 10 10 10 8 8 6 6 4 7 10 13 13 10 7 8 8 9 9 9 10 10 10 10 10 11 11 11 14 16 15 16 17 16 16 18 17 14 9 16 28 15 14 13 16 14 8 7 4 5 7 6 5 6 7 7 7 7 8 7 7 5 5 6 6 7 8 11 9 8
6 6 6 7 11 12 13 11 10 9 9 7 6 8 10 11 12 9 8 8 9 9 8 8 9 9 9 10 10 10 10 10 13 15 16 17 17 17 15 13 15 17 11 18 22 17 16 13 15 18 14 10 12 9 8 9 7 7 7 7 7 7 7 7 7 6 5 6 6 11 9 10 9 8
4 5 6 7 10 10 11 11 10 10 8 7 10 9 8 8 7 5 5 6 7 8 9 10 10 10 10 8 6 7 7 9 12 14 15 15 16 16 14 13 10 5 14 19 19 17 15 16 15 13 16 16 15 15 12 7 6 9 9 7 7 7 6 6 5 5 5 5 5 6 5 5 5 5
4 5 7 8 8 9 10 10 9 6 5 6 7 8 8 7 4 4 5 5 5 7 8 8 9 9 9 9 8 7 6 8 9 9 11 13 14 12 11 8 7 9 12 14 17 16 14 17 18 15 13 13 13 11 12 13 10 10 10 10 7 6 6 5 5 5 5 5 6 6 7 7 6 6
5 6 7 6 6 6 6 6 5 4 5 7 8 8 8 4 5 5 5 5 7 8 8 8 9 9 5 3 2 2 3 5 6 6 7 6 6 8 9 9 7 8 10 13 14 13 11 10 12 11 8 6 9 13 11 11 9 10 10 10 7 5 4 5 6 5 6 6 6 7 7 6 7 7
4 5 5 5 6 6 6 5 5 5 6 6 6 5 5 4 4 5 5 5 6 8 8 7 6 4 2 1 1 1 1 3 1 1 5 7 8 9 8 10 9 9 9 12 12 12 12 14 16 17 16 12 8 10 10 9 9 10 9 8 9 10 8 7 6 6 6 5 5 4 4 4 4 7
5 5 4 4 3 4 4 4 5 5 5 5 5 5 5 5 5 6 8 7 3 2 3 4 3 2 2 2 1 1 1 1 1 1 2 2 3 2 6 8 6 8 10 11 10 11 12 13 14 11 11 13 13 9 8 9 9 11 10 9 9 4 6 9 7 6 6 5 5 4 4 5 6 6
3 3 3 3 4 6 6 6 6 6 7 6 5 5 6 6 6 6 5 5 5 4 3 3 3 3 3 2 3 3 3 4 3 2 5 5 6 6 4 3 5 11 13 11 10 9 9 8 7 10 8 7 8 11 10 10 8 9 11 10 9 7 5 6 7 6 6 5 5 5 4 5 5 6
3 2 3 3 4 6 6 6 6 6 6 6 7 6 7 6 6 6 6 6 5 5 5 5 4 4 3 3 3 3 4 4 4 4 5 5 6 5 6 9 7 6 4 8 12 13 13 12 10 7 6 5 4 8 10 11 10 9 9 10 10 10 6 6 7 8 8 7 7 6 5 5 6 5
2 3 3 3 4 3 4 5 5 5 6 6 6 5 5 6 6 6 5 6 5 5 4 4 4 4 4 4 3 4 4 4 4 5 4 5 6 7 9 10 11 13 14 12 11 10 12 13 12 10 6 5 4 2 5 4 6 7 8 8 9 10 9 6 6 7 8 6 6 8 6 6 6 6
2 2 2 3 3 3 3 3 4 4 4 4 4 4 5 5 5 5 4 3 3 3 3 3 4 4 4 4 4 4 4 5 5 6 6 6 7 7 7 8 10 9 7 8 9 9 10 12 13 13 12 10 9 8 10 8 4 8 9 7 7 7 8 7 6 6 7 7 7 7 8 9 8 7
3 2 2 2 3 2 3 2 2 2 3 3 3 3 3 4 4 3 3 3 3 3 3 3 3 3 4 4 5 5 5 5 6 6 7 7 8 9 11 10 11 11 10 9 8 9 9 11 9 10 10 9 10 11 7 4 3 5 9 9 7 7 8 6 6 6 6 7 7 8 9 8 8 7
2 2 3 3 3 3 2 2 2 2 2 2 2 2 2 2 2 2 2 2 3 2 3 3 3 3 4 3 4 4 4 4 4 4 4 5 6 5 7 9 8 7 8 10 9 7 7 7 7 9 9 10 10 9 8 4 3 5 8 8 9 9 7 7 8 8 6 6 7 8 7 8 8 5
2 3 3 3 3 3 3 3 2 2 1 1 1 2 2 1 1 2 2 2 2 2 2 3 3 3 4 4 3 4 4 4 4 4 4 3 4 6 6 6 7 7 7 7 7 6 5 7 8 7 7 8 10 9 7 8 7 5 7 9 7 9 9 10 9 8 7 7 6 3 4 1 5 5
3 3 3 3 3 2 3 2 2 2 2 2 2 1 2 2 1 0 0 1 1 2 2 2 3 3 3 4 4 4 4 5 4 4 4 4 3 4 4 4 5 7 7 7 6 4 5 7 8 8 6 3 2 2 3 4 5 3 4 5 7 10 10 9 9 8 7 7 6 7 6 4 6 2
4 4 4 3 3 3 3 3 3 2 2 2 2 2 2 2 2 1 1 1 1 1 2 2 2 3 3 3 3 4 4 4 4 4 3 3 3 4 5 5 5 5 6 6 6 6 7 2 3 7 5 4 4 6 5 5 5 4 5 6 5 5 9 12 9 8 6 7 8 8 7 7 6 4
3 4 4 3 3 3 3 3 3 3 3 3 3 3 2 2 3 2 2 2 2 1 2 2 2 2 3 3 3 3 4 4 4 4 4 4 5 5 5 5 6 5 6 6 6 6 4 3 6 6 5 5 6 8 7 7 6 5 4 4 4 4 5 10 9 8 7 9 8 6 4 2 1 4
4 4 4 3 3 3 3 3 3 3 4 3 3 3 3 3 3 3 2 2 2 2 2 2 2 3 3 3 3 3 4 4 4 4 4 4 4 5 4 3 3 4 4 4 4 4 4 4 4 5 4 4 3 4 5 5 5 5 5 4 6 5 3 4 7 5 5 12 15 12 10 8 5 5
4 4 4 4 3 3 3 4 4 3 4 4 4 3 4 4 4 3 3 2 3 3 2 2 2 3 3 3 3 3 3 4 4 5 5 4 4 4 5 4 4 4 4 5 5 4 4 4 4 4 5 4 3 4 4 5 5 4 5 5 5 6 6 4 4 3 4 6 10 8 6 8 9 6
5 5 5 4 4 4 3 3 4 4 4 4 4 4 4 4 4 3 3 3 3 3 3 3 3 3 3 3 4 4 3 4 4 4 4 4 4 4 5 5 5 5 5 5 6 5 4 4 3 2 2 3 3 3 3 4 4 4 3 4 6 6 6 6 6 6 6 5 9 14 11 9 5 2
Wind_Direction
250 243 234 227 246 239 232 247 238 217 186 190 189 185 185 184 172 185 228 239 236 219 207 199 206 183 175 159 167 170 175 178 168 152 149 150 149 144 141 143 139 136 138 137 133 130 126 122 118 115 116 118 119 118 113 108 102 96 92 92 91 89 87 87 87 86 84 82 81 80 80 80 78 82
236 248 252 232 248 245 224 235 239 222 206 197 198 202 201 164 194 188 198 250 206 201 204 211 194 187 175 179 169 171 176 171 142 151 146 150 150 139 139 137 135 138 138 131 130 129 124 123 118 114 114 115 119 119 117 113 108 99 94 95 96 95 93 89 89 88 87 89 89 89 89 86 86 83
231 240 250 235 244 241 244 249 246 228 201 210 203 216 184 196 206 193 186 247 250 188 197 212 181 169 178 179 166 161 168 160 146 147 150 152 147 139 135 136 134 133 129 127 129 133 132 129 129 125 120 115 113 112 110 108 105 104 105 106 105 104 99 97 95 93 93 93 92 87 87 87 84 83
230 231 240 239 236 238 242 258 252 237 223 209 210 203 195 206 202 166 181 220 250 201 205 193 188 177 175 172 161 157 154 154 146 149 150 156 148 141 141 134 137 132 128 124 124 129 137 138 136 132 128 125 122 118 116 113 112 111 112 111 107 103 101 100 100 101 103 103 101 104 100 89 89 94
238 234 239 243 239 212 238 241 243 239 227 213 215 206 200 205 186 181 194 214 241 193 207 179 181 182 175 177 168 161 160 161 157 143 150 152 138 140 139 138 136 133 128 126 124 126 133 139 138 137 137 135 131 125 124 120 118 116 117 110 104 104 106 105 105 106 105 103 107 108 108 110 109 101
233 237 240 248 244 208 229 241 243 233 226 211 209 202 202 209 203 202 190 218 221 211 184 193 181 179 185 174 181 168 163 155 156 151 143 133 138 135 136 136 134 131 132 128 125 123 122 133 144 145 142 135 128 125 120 119 121 121 114 110 109 110 113 115 114 113 113 113 108 105 105 107 106 105
234 238 240 249 247 219 232 237 238 234 233 218 212 211 201 212 213 199 206 185 209 205 205 189 178 185 191 189 183 178 169 162 167 152 148 142 129 124 127 129 129 127 129 127 121 115 109 101 102 113 123 130 136 121 114 109 108 110 103 100 104 115 118 121 125 122 120 118 115 114 112 108 106 104
225 231 242 249 244 235 238 247 242 233 236 229 220 222 208 212 218 195 196 210 208 189 180 199 192 190 180 191 174 171 165 167 162 148 131 130 128 131 130 124 132 136 120 119 120 118 113 107 101 100 104 113 116 111 112 112 112 110 107 100 97 96 95 103 116 124 125 123 121 118 116 114 110 108
230 229 231 243 240 220 234 247 242 234 230 231 227 232 214 214 215 192 194 206 197 178 196 194 196 170 177 158 164 164 153 149 142 130 137 149 139 131 134 130 135 133 126 118 114 112 112 107 105 106 107 111 114 116 117 115 111 114 113 112 108 101 94 93 94 93 92 93 102 106 109 112 110 113
231 229 234 238 233 217 218 237 238 229 229 224 222 228 226 220 200 200 195 194 202 203 199 173 174 179 172 160 175 179 161 156 148 146 130 113 134 140 149 158 162 157 155 146 125 117 117 118 119 121 123 123 122 123 122 119 119 119 120 122 121 116 111 105 102 100 98 97 92 87 80 89 124 124
232 234 235 238 233 229 224 231 234 228 221 214 223 219 224 212 199 201 199 190 199 202 188 196 193 188 196 176 171 175 174 180 158 161 152 167 169 166 168 168 173 168 143 129 136 138 139 137 137 131 128 128 128 128 128 127 126 123 122 124 127 127 124 116 102 93 93 89 82 81 81 79 79 85
237 235 236 238 237 233 233 232 236 225 226 213 221 225 213 201 195 205 194 198 200 196 194 202 198 192 176 164 129 140 161 173 202 197 175 172 179 188 184 180 176 163 157 154 145 136 133 134 132 134 135 137 138 136 133 133 130 129 126 124 123 127 128 118 109 100 93 89 85 79 77 78 83 90
244 242 238 238 238 233 235 232 231 226 217 213 222 229 208 208 203 205 190 193 196 197 205 210 192 175 178 179 160 168 186 199 197 185 177 176 162 162 169 179 173 167 164 157 154 157 156 145 150 151 148 147 146 144 140 136 135 134 132 128 128 126 123 117 111 103 96 92 88 85 81 77 77 83
263 250 245 242 240 240 239 241 239 235 223 216 216 225 208 207 207 200 192 202 195 198 206 210 190 191 198 193 192 192 204 195 135 160 182 181 152 137 126 149 192 183 173 159 161 162 163 151 147 153 154 158 154 154 151 147 140 138 136 134 132 131 127 118 111 107 106 103 98 99 98 97 96 95
277 273 262 260 258 253 250 247 245 243 235 222 221 221 207 202 197 198 197 205 200 200 210 199 196 206 210 209 201 202 196 192 187 178 178 177 160 177 171 193 185 205 181 168 155 165 173 160 154 164 161 160 156 152 144 143 140 139 138 137 138 135 130 123 118 115 114 110 105 102 103 101 99 98
256 260 260 251 245 250 251 254 257 255 252 243 230 229 218 202 208 206 201 201 199 207 202 213 220 223 224 215 188 200 184 191 190 179 170 180 181 178 196 195 196 184 173 165 162 159 171 171 157 162 167 158 156 155 153 150 146 145 140 140 142 139 134 129 125 122 119 116 111 108 103 102 99 97
250 254 259 265 257 252 247 249 249 248 253 254 253 247 242 234 227 225 225 221 210 154 174 209 217 214 223 214 209 198 194 170 181 173 181 189 197 201 205 209 185 159 172 160 159 164 171 172 168 166 166 162 156 155 160 158 153 153 146 143 145 144 141 137 134 131 127 122 120 115 113 107 105 104
231 235 242 250 257 251 242 239 238 239 241 245 247 251 235 223 233 230 223 232 222 190 193 192 212 224 213 220 216 204 186 181 188 183 194 188 191 199 212 207 165 155 174 180 158 134 167 180 170 168 160 158 153 154 161 164 162 160 155 153 153 157 155 150 144 141 138 135 131 127 121 117 118 117
240 241 242 242 245 248 245 241 238 240 240 230 200 219 222 202 217 221 224 217 207 202 211 212 218 226 218 224 226 169 173 207 199 193 200 196 196 178 68 66 110 156 188 151 152 179 164 169 165 170 153 160 157 150 161 169 173 168 163 162 166 167 171 164 158 153 153 149 145 142 134 133 133 124
243 244 239 237 241 245 248 250 245 244 247 204 217 232 239 232 227 229 227 224 217 208 215 217 221 225 226 221 196 172 194 198 187 179 96 108 130 158 175 173 164 174 190 182 182 150 175 175 167 155 155 151 154 151 154 176 178 177 169 168 173 177 179 179 173 169 167 164 158 152 148 149 148 146
238 242 239 236 245 248 249 248 243 245 233 112 296 246 240 238 239 243 234 217 222 220 217 222 224 227 225 205 190 186 189 186 175 143 144 178 179 176 188 187 167 193 177 190 193 154 160 183 164 141 145 157 154 152 165 173 183 182 181 176 174 177 182 184 185 178 177 173 168 162 162 163 165 153
244 246 247 244 245 248 253 245 241 243 193 178 210 234 237 240 245 249 244 238 230 225 227 227 228 229 230 221 210 197 187 180 170 171 192 196 176 192 193 198 182 153 185 194 180 165 182 150 156 146 136 149 163 158 156 176 181 184 184 180 176 179 181 186 187 184 184 182 175 171 169 171 163 160
276 276 278 274 268 269 272 272 258 252 222 213 209 217 223 232 237 238 242 242 243 239 230 233 233 241 240 234 224 214 199 189 184 190 202 159 174 194 198 182 142 163 216 198 179 176 166 165 169 155 141 169 162 175 173 180 175 181 179 175 181 185 183 188 187 186 189 190 184 175 172 164 164 165
264 262 266 271 261 257 265 278 289 287 248 238 226 212 218 231 247 236 238 239 238 245 240 241 235 235 236 231 225 223 211 200 195 198 195 179 187 196 190 180 179 193 198 177 178 180 142 151 151 175 163 140 172 179 176 188 175 182 171 166 175 183 182 182 189 189 189 195 192 181 168 161 174 168
291 295 288 287 6 22 14 358 332 313 296 262 250 242 238 236 255 270 241 247 237 244 245 242 241 235 233 229 226 219 207 197 201 202 199 192 194 191 189 190 194 214 170 170 169 156 156 158 150 139 68 18 16 137 165 168 180 180 181 181 173 171 174 182 182 183 192 197 196 185 167 166 176 175
318 334 348 345 6 351 341 328 319 312 308 295 271 255 253 265 278 277 263 264 262 252 251 246 243 240 234 231 223 219 211 201 199 201 199 198 201 203 196 189 190 201 179 167 167 165 138 161 166 158 153 135 145 162 152 179 175 187 183 187 182 174 174 172 180 180 179 185 185 189 173 170 170 174
330 334 335 334 340 332 323 319 311 303 301 294 269 263 269 276 280 288 280 279 274 265 261 257 253 248 242 238 231 221 216 208 202 204 201 201 202 207 211 207 201 200 167 159 172 165 161 156 165 161 162 151 145 160 169 165 181 187 189 186 182 175 179 173 176 178 179 183 191 174 158 165 174 176
334 328 325 321 320 315 312 313 314 313 306 297 298 298 287 272 268 254 260 254 252 255 256 257 259 256 253 255 253 249 238 221 210 206 204 205 206 204 205 204 201 150 149 165 165 168 165 156 167 169 153 156 155 164 171 178 171 175 179 171 175 174 175 177 172 170 177 184 163 151 159 168 178 175
326 309 297 298 310 317 322 320 318 317 318 329 324 313 303 296 279 262 252 251 247 248 245 247 255 259 257 257 259 260 249 244 235 221 215 210 208 204 194 186 164 151 154 165 167 166 165 164 164 159 156 157 153 161 164 173 171 179 176 159 173 182 175 175 165 171 167 169 170 165 180 179 178 185
305 290 282 285 301 306 321 331 336 340 341 335 337 342 344 331 308 293 276 262 258 255 257 254 254 259 283 318 303 259 250 245 229 205 210 206 197 166 155 137 133 146 154 156 160 159 148 143 136 132 118 137 149 159 169 154 173 177 173 177 163 123 171 166 173 174 165 172 173 181 188 183 186 178
332 328 332 327 307 290 292 315 347 346 351 351 348 343 341 330 320 299 279 267 274 282 284 286 291 319 306 313 330 8 206 227 350 288 227 214 188 170 164 154 142 135 145 151 153 153 147 144 148 154 157 161 159 170 163 159 164 170 179 171 159 176 170 162 170 176 174 170 166 168 150 168 190 201
330 330 327 325 338 345 354 7 14 15 9 0 348 343 341 338 330 323 318 313 324 319 296 292 302 304 318 317 12 64 82 76 49 41 96 107 93 117 140 137 128 123 124 137 141 146 148 156 160 159 152 154 158 164 153 169 178 176 173 172 179 161 135 170 170 175 170 153 153 169 175 184 192 200
333 341 355 350 350 1 4 8 8 6 357 351 350 358 359 352 351 350 1 347 331 322 316 294 285 289 315 0 24 41 54 46 50 60 84 78 113 101 48 63 125 145 142 142 143 130 120 131 137 145 147 152 153 150 156 171 193 182 172 173 175 170 162 172 171 158 142 150 172 173 180 197 203 203
332 346 342 357 354 356 6 8 8 1 352 348 348 356 3 9 7 8 9 14 356 347 348 349 345 355 12 38 44 63 77 76 83 83 99 105 111 108 108 109 90 40 63 124 131 143 147 146 152 151 136 138 135 160 171 178 176 180 181 171 173 180 172 166 176 159 162 174 167 176 197 209 209 209
356 347 343 352 350 355 359 5 2 357 353 350 347 345 357 11 13 14 20 12 15 23 24 25 28 34 50 61 61 76 86 95 83 75 82 105 109 120 127 125 129 138 149 166 170 158 150 148 142 142 133 127 130 223 259 241 182 166 166 173 178 179 175 172 162 159 171 179 170 187 199 211 216 207
326 337 342 334 345 344 352 4 356 357 353 347 346 344 352 4 14 18 20 1 21 31 42 49 50 53 62 73 76 86 93 86 81 91 101 103 110 109 108 120 130 130 125 136 147 155 152 152 155 156 158 163 177 181 211 215 187 175 159 165 176 179 177 167 164 159 165 177 180 189 201 212 224 209
306 314 319 316 322 335 332 339 344 350 349 345 345 349 350 356 6 12 10 3 43 44 48 60 80 86 90 96 98 101 109 111 115 115 118 117 118 122 123 122 127 131 133 139 142 150 159 156 157 158 156 163 180 193 183 124 184 197 179 160 166 175 170 161 152 169 187 176 178 194 205 211 226 220
301 310 303 308 313 316 314 313 323 322 331 336 330 332 342 347 1 10 4 36 41 51 60 69 80 80 86 86 99 99 98 93 93 91 87 106 116 112 127 132 129 126 132 141 147 155 159 159 168 175 175 173 178 182 176 148 148 207 207 177 163 169 158 150 170 186 182 186 194 200 204 216 227 233
276 283 290 297 305 302 303 304 301 302 298 298 301 303 306 316 342 9 32 40 44 60 75 83 82 83 90 89 88 99 104 109 99 85 63 46 85 114 122 118 120 132 128 137 149 149 154 170 181 186 188 191 194 187 172 157 183 139 179 194 170 154 167 168 179 184 178 178 199 185 214 310 40 56
267 257 261 262 266 265 269 275 273 263 277 271 272 262 262 260 259 336 81 79 66 68 76 85 90 90 89 84 89 90 83 77 78 82 77 73 73 78 87 99 112 132 138 141 147 150 175 187 188 190 190 173 92 75 97 89 60 80 142 195 199 175 169 176 178 172 182 187 166 174 192 180 218 176
291 277 263 257 259 250 251 248 245 238 243 238 240 242 238 248 241 222 205 161 139 131 115 107 105 105 106 103 99 103 104 101 104 109 94 82 80 94 116 120 123 142 139 145 150 166 182 144 104 96 101 109 122 107 115 145 162 149 168 181 193 222 192 185 177 169 176 162 170 184 185 187 201 182
281 286 286 272 260 257 245 245 228 226 228 220 224 234 228 231 242 238 215 156 147 145 142 138 133 131 125 131 134 128 129 134 141 137 141 146 141 136 141 151 151 153 152 151 157 159 119 129 135 125 134 133 146 167 181 179 170 166 168 157 165 158 176 204 213 201 185 157 159 166 152 106 81 214
266 273 280 279 270 255 245 242 233 225 228 214 216 213 219 230 230 232 213 199 185 181 175 157 157 155 148 148 149 151 146 149 150 149 144 144 144 144 140 134 128 131 137 132 114 103 121 126 124 138 141 153 161 178 174 170 168 159 160 166 172 168 154 169 195 190 181 189 183 177 173 171 153 206
249 260 266 269 269 257 242 236 234 223 225 219 215 206 215 221 228 229 226 217 203 194 181 176 168 165 166 157 153 151 163 155 154 158 159 157 154 148 140 139 140 139 134 130 128 124 122 135 140 148 151 161 150 174 168 159 180 176 176 164 150 161 172 156 145 143 155 189 223 235 251 221 203 201
250 255 267 269 267 261 248 234 227 221 217 217 215 214 213 220 228 225 222 220 216 206 193 186 179 174 169 167 164 169 165 152 155 158 152 149 152 149 148 151 150 152 150 148 141 133 136 139 138 134 136 146 154 173 161 176 174 169 167 167 175 177 169 160 167 177 192 208 209 214 218 219 237 84